Location: Shannon
(40.5500°S, 175.4167°E)
Time: 21:05:19
(UTC+00:00)

Cosmos 44 - Pass Details

Date: 17 November 2025
Orbit: 574 x 776 km, 65.1° (Epoch: 14 December)

Event Time Altitude Azimuth Distance (km) Brightness Sun altitude
Exits shadow 13:48:15 60° 249° (WSW) 823 3.5 -25.5°
Maximum altitude 13:48:27 61° 236° (SW) 818 3.6 -25.5°
Drops below altitude 10° 13:53:20 10° 155° (SSE) 2,154 6.9 -25.1°
Sets 13:55:39 0° 151° (SSE) 3,041 8.0 -24.9°
